| time (UTC) | temp F | wind direction | speed knots | gust knots | rain 1hr in | rain 24hr in | rain mn in | humidity % | barometer mb |
| 20260507235007 | 95 | 222 | 4.3 | 10.4 | 0.00 | 0.00 | 0.00 | 10 | 1006.0 |
| 20260507234509 | 95 | 260 | 0.9 | 9.6 | 0.00 | 0.00 | 0.00 | 10 | 1006.0 |
| 20260507234008 | 95 | 296 | 3.5 | 9.6 | 0.00 | 0.00 | 0.00 | 9 | 1006.1 |
| 20260507233507 | 95 | 236 | 0.9 | 7.0 | 0.00 | 0.00 | 0.00 | 10 | 1006.0 |
| 20260507233018 | 95 | 237 | 1.7 | 7.0 | 0.00 | 0.00 | 0.00 | 9 | 1006.1 |
| 20260507232505 | 95 | 320 | 2.6 | 7.8 | 0.00 | 0.00 | 0.00 | 9 | 1006.2 |
| 20260507232006 | 95 | 226 | 0.9 | 7.8 | 0.00 | 0.00 | 0.00 | 10 | 1006.2 |
| 20260507231511 | 95 | 250 | 2.6 | 7.8 | 0.00 | 0.00 | 0.00 | 10 | 1006.2 |
| 20260507231006 | 96 | 273 | 1.7 | 7.8 | 0.00 | 0.00 | 0.00 | 10 | 1006.1 |
| 20260507230506 | 95 | 213 | 2.6 | 7.8 | 0.00 | 0.00 | 0.00 | 9 | 1006.2 |
| 20260507230013 | 96 | 254 | 3.5 | 7.0 | 0.00 | 0.00 | 0.00 | 9 | 1006.3 |
| 20260507225502 | 97 | 257 | 2.6 | 7.0 | 0.00 | 0.00 | 0.00 | 9 | 1006.4 |
| 20260507225004 | 97 | 165 | 2.6 | 7.0 | 0.00 | 0.00 | 0.00 | 9 | 1006.4 |
| 20260507224502 | 97 | 155 | 1.7 | 6.1 | 0.00 | 0.00 | 0.00 | 9 | 1006.4 |
| 20260507224001 | 96 | 153 | 0.0 | 5.2 | 0.00 | 0.00 | 0.00 | 10 | 1006.5 |
| 20260507223602 | 96 | 132 | 0.9 | 5.2 | 0.00 | 0.00 | 0.00 | 9 | 1006.6 |
| 20260507223100 | 95 | 304 | 1.7 | 5.2 | 0.00 | 0.00 | 0.00 | 9 | 1006.7 |
| 20260507222559 | 95 | 248 | 0.9 | 6.1 | 0.00 | 0.00 | 0.00 | 10 | 1006.7 |
| 20260507222058 | 95 | 287 | 1.7 | 7.8 | 0.00 | 0.00 | 0.00 | 10 | 1006.8 |
| 20260507221558 | 95 | 249 | 2.6 | 7.8 | 0.00 | 0.00 | 0.00 | 11 | 1006.9 |
| 20260507221058 | 95 | 271 | 2.6 | 7.0 | 0.00 | 0.00 | 0.00 | 9 | 1006.9 |
| 20260507220557 | 96 | 276 | 1.7 | 7.0 | 0.00 | 0.00 | 0.00 | 10 | 1007.0 |
| 20260507220056 | 96 | 256 | 3.5 | 7.0 | 0.00 | 0.00 | 0.00 | 10 | 1007.2 |
| 20260507215555 | 96 | 231 | 1.7 | 9.6 | 0.00 | 0.00 | 0.00 | 10 | 1007.3 |
| 20260507215055 | 97 | 313 | 1.7 | 7.8 | 0.00 | 0.00 | 0.00 | 10 | 1007.3 |
| 20260507214556 | 96 | 257 | 1.7 | 6.1 | 0.00 | 0.00 | 0.00 | 10 | 1007.3 |
| 20260507214053 | 96 | 95 | 2.6 | 6.1 | 0.00 | 0.00 | 0.00 | 9 | 1007.4 |
| 20260507213551 | 96 | 148 | 2.6 | 6.1 | 0.00 | 0.00 | 0.00 | 9 | 1007.5 |
| 20260507213057 | 96 | 126 | 1.7 | 6.1 | 0.00 | 0.00 | 0.00 | 9 | 1007.6 |
| 20260507212550 | 96 | 217 | 1.7 | 6.1 | 0.00 | 0.00 | 0.00 | 9 | 1007.7 |
| 20260507212048 | 95 | 287 | 1.7 | 4.3 | 0.00 | 0.00 | 0.00 | 9 | 1007.7 |
| 20260507211553 | 94 | 143 | 0.0 | 3.5 | 0.00 | 0.00 | 0.00 | 10 | 1007.8 |
| 20260507211047 | 94 | 159 | 0.9 | 4.3 | 0.00 | 0.00 | 0.00 | 10 | 1008.0 |
| 20260507210546 | 94 | 360 | 1.7 | 4.3 | 0.00 | 0.00 | 0.00 | 13 | 1008.0 |
| 20260507210046 | 95 | 288 | 1.7 | 4.3 | 0.00 | 0.00 | 0.00 | 11 | 1008.1 |
| 20260507205544 | 95 | 67 | 0.9 | 4.3 | 0.00 | 0.00 | 0.00 | 9 | 1008.2 |
| 20260507205044 | 94 | 214 | 0.9 | 4.3 | 0.00 | 0.00 | 0.00 | 11 | 1008.3 |
| 20260507204543 | 94 | 52 | 0.0 | 2.6 | 0.00 | 0.00 | 0.00 | 11 | 1008.4 |
| 20260507204042 | 94 | 338 | 0.0 | 7.0 | 0.00 | 0.00 | 0.00 | 10 | 1008.4 |
| 20260507203542 | 94 | 190 | 0.9 | 4.3 | 0.00 | 0.00 | 0.00 | 9 | 1008.5 |
| 20260507203042 | 94 | 269 | 0.9 | 4.3 | 0.00 | 0.00 | 0.00 | 9 | 1008.5 |
| 20260507202540 | 94 | 250 | 1.7 | 4.3 | 0.00 | 0.00 | 0.00 | 9 | 1008.5 |
| 20260507202038 | 93 | 134 | 0.9 | 5.2 | 0.00 | 0.00 | 0.00 | 10 | 1008.6 |
| 20260507201546 | 93 | 232 | 1.7 | 5.2 | 0.00 | 0.00 | 0.00 | 10 | 1008.7 |
| 20260507201039 | 93 | 166 | 0.9 | 5.2 | 0.00 | 0.00 | 0.00 | 10 | 1008.8 |
| 20260507200536 | 93 | 312 | 0.9 | 4.3 | 0.00 | 0.00 | 0.00 | 10 | 1008.9 |
| 20260507200042 | 93 | 195 | 0.9 | 6.1 | 0.00 | 0.00 | 0.00 | 10 | 1008.9 |
| 20260507195533 | 93 | 243 | 0.9 | 5.2 | 0.00 | 0.00 | 0.00 | 10 | 1009.0 |
| 20260507195033 | 93 | 209 | 1.7 | 4.3 | 0.00 | 0.00 | 0.00 | 11 | 1009.1 |
| 20260507194533 | 93 | 210 | 1.7 | 4.3 | 0.00 | 0.00 | 0.00 | 10 | 1009.2 |
| 20260507194031 | 92 | 244 | 0.9 | 6.1 | 0.00 | 0.00 | 0.00 | 11 | 1009.2 |
| 20260507193530 | 92 | 82 | 1.7 | 6.1 | 0.00 | 0.00 | 0.00 | 10 | 1009.3 |
| 20260507193038 | 92 | 276 | 0.9 | 4.3 | 0.00 | 0.00 | 0.00 | 10 | 1009.4 |
| 20260507192529 | 92 | 260 | 0.9 | 4.3 | 0.00 | 0.00 | 0.00 | 10 | 1009.5 |
| 20260507192027 | 92 | 134 | 0.9 | 4.3 | 0.00 | 0.00 | 0.00 | 10 | 1009.7 |
| 20260507191527 | 92 | 169 | 0.9 | 4.3 | 0.00 | 0.00 | 0.00 | 11 | 1009.8 |
| 20260507191024 | 91 | 126 | 0.9 | 5.2 | 0.00 | 0.00 | 0.00 | 11 | 1009.9 |
| 20260507190524 | 90 | 54 | 0.9 | 5.2 | 0.00 | 0.00 | 0.00 | 10 | 1009.9 |
| 20260507190025 | 90 | 258 | 0.9 | 4.3 | 0.00 | 0.00 | 0.00 | 10 | 1010.0 |
| 20260507010024 | 83 | 151 | 1.7 | 8.7 | 0.00 | 0.00 | 0.00 | 18 | 1010.1 |
| 20260507005517 | 84 | 213 | 1.7 | 6.1 | 0.00 | 0.00 | 0.00 | 18 | 1010.2 |
| 20260507005016 | 84 | 190 | 1.7 | 5.2 | 0.00 | 0.00 | 0.00 | 18 | 1010.1 |
| 20260507004516 | 84 | 184 | 1.7 | 6.1 | 0.00 | 0.00 | 0.00 | 18 | 1010.2 |
| 20260507004015 | 84 | 260 | 2.6 | 6.1 | 0.00 | 0.00 | 0.00 | 17 | 1010.2 |
| 20260507003515 | 85 | 173 | 0.9 | 6.1 | 0.00 | 0.00 | 0.00 | 18 | 1010.1 |
| 20260507003015 | 85 | 211 | 2.6 | 6.1 | 0.00 | 0.00 | 0.00 | 17 | 1010.2 |
| 20260507002514 | 85 | 213 | 1.7 | 5.2 | 0.00 | 0.00 | 0.00 | 18 | 1010.2 |
| 20260507002014 | 85 | 205 | 0.9 | 7.0 | 0.00 | 0.00 | 0.00 | 17 | 1010.1 |
| 20260507001515 | 85 | 222 | 1.7 | 7.8 | 0.00 | 0.00 | 0.00 | 18 | 1010.1 |
| 20260507001013 | 85 | 198 | 1.7 | 7.8 | 0.00 | 0.00 | 0.00 | 17 | 1010.1 |
| 20260507000513 | 85 | 203 | 1.7 | 6.1 | 0.00 | 0.00 | 0.00 | 18 | 1010.0 |
| 20260507000018 | 86 | 224 | 1.7 | 6.1 | 0.00 | 0.00 | 0.00 | 18 | 1010.2 |
| 20260506235513 | 86 | 257 | 0.9 | 5.2 | 0.00 | 0.00 | 0.00 | 17 | 1010.1 |